Regional Weather Roundup
Issued by NWS Spokane, WA

Home | Current Version | Previous Version | Text Only | Print | Product List | Glossary On
Versions: 1 2 3 4 5 6 7 8 9 10 11 12 13 14 15 16 17 18 19 20 21 22 23 24 25 26 27 28 29 30 31 32 33 34 35 36 37 38 39 40 41 42 43 44 45 46 47 48 49 50
000
NZUS01 KOTX 032210
RWROTX
EASTERN WASHINGTON/NORTHERN IDAHO ROUNDUP
NATIONAL WEATHER SERVICE, SPOKANE WA
300 PM PDT THU SEP 03 2015

Note: "fair" indicated few or no clouds below 12,000 feet with no
significant weather and/or obstructions to visibility.

...NORTHEAST WASHINGTON AND NORTHERN IDAHO PANHANDLE...

CITY           SKY/WX    TMP DP  RH WIND       PRES   REMARKS
SPOKANE INTL   MOSUNNY   63  30  28 SW10      29.92F
SPOKANE DOWNTO PTSUNNY   67  33  28 S13       29.92F
COEUR D ALENE  MOSUNNY   63  34  34 SW3       29.92S
DEER PARK      MOSUNNY   66  33  29 SW12G17   29.92S HAZE
SANDPOINT      PTSUNNY   63  36  36 S5        29.92S
BONNERS FERRY  FAIR      64  39  39 S6        29.91S

...SOUTHEAST WASHINGTON AND SOUTHERN IDAHO PANHANDLE...

CITY           SKY/WX    TMP DP  RH WIND       PRES   REMARKS
WALLA WALLA    SUNNY     68  33  27 W7G18     29.93F
PULLMAN/MOSCOW PTSUNNY   62  34  35 VRB3      29.96F
LEWISTON       PTSUNNY   63  42  46 VRB5      29.95F
LOWELL           N/A     56  52  86 VRB3      29.99S

...COLUMBIA BASIN...

CITY           SKY/WX    TMP DP  RH WIND       PRES   REMARKS
EPHRATA        SUNNY     70  30  22 SW10      29.89F
MOSES LAKE     SUNNY     70  30  22 W7        29.91F
TRI CITIES     SUNNY     72  34  24 VRB6      29.92F
HERMISTON      SUNNY     72  31  22 W13       29.91F
PENDLETON      MOSUNNY   68  30  24 NW14      29.92F

...EAST SLOPES CASCADES...

CITY           SKY/WX    TMP DP  RH WIND       PRES   REMARKS
THE DALLES     SUNNY     73  35  25 NW21G28   29.93F
YAKIMA         MOSUNNY   72  29  20 E9        29.91F
ELLENSBURG     SUNNY     69  29  22 NW22      29.91F
WENATCHEE      MOSUNNY   70  27  20 VRB5      29.88F
OMAK           MOSUNNY   71  25  17 SW7       29.87F

...SOUTHERN BRITISH COLUMBIA...

CITY           SKY/WX    TMP DP  RH WIND       PRES   REMARKS
PENTICTON      PTSUNNY   68  30  24 VRB5      29.88F
CASTLEGAR      PTSUNNY   59  45  58 NW7       29.90R
CRANBROOK      MOSUNNY   59  41  51 E9        29.92F

...WESTERN MONTANA...

CITY           SKY/WX    TMP DP  RH WIND       PRES   REMARKS
MISSOULA       CLOUDY    52  47  83 SE7       29.98F

...NEIGHBORING CITIES...

CITY           SKY/WX    TMP DP  RH WIND       PRES   REMARKS
SEATTLE        PTSUNNY   63  46  54 S7        30.00F
CALGARY        TSTM      48  43  81 SW5       29.95R



USA.gov is the U.S. government's official web portal to all federal, state and local government web resources and services.